OBJECT AL, 67282

Orbit data source: Space-Track

You're viewing an Uncataloged Satellite

Recently launched and/or uncataloged satellites may have evolving metadata. Metadata may include but not limited to: Owner, Maufacturer, Bus, Motor, and Mission.

OBJECT AL, 67282 is a satellite in SSO that was launched on Sun, 28 Dec 2025 UTC via a SOYUZ-2-1B launch vehicle from the Vostochny Cosmodrome (VOSTO). Unknown objects in Earth's orbit typically refer to objects detected orbiting the Earth but have not yet been identified or cataloged. These objects could be anything from previously untracked satellites, spent rocket stages, debris from satellite collisions, or even natural meteoroids temporarily captured by Earth's gravity.

Loading next visibility...
Identifier
67282, 2025-313AL
Orbit
SSO
Country
Flag of TBDTBD
Related business
None
Manufacturer
Unknown
Mission
Operational Commercial Technology
Bus & Motor
Unknown
Mass
Unknown
Launch date (UTC)
2025-12-28 (6 months ago)
Launch vehicle
SOYUZ-2-1B
Launch site
Vostochny Cosmodrome (VOSTO)
Object type
Unknown
Shape & HBR
Box, 0.1 m
Radar Cross Section
0.015 m², Medium (>0.1 m² and < 1m²)

Expand to show TLE details & history
Last TLE update: 1 day ago

TLE from 1 day ago
0 OBJECT AL
1 67282U 25313AL  26170.77818047  .00004109  00000-0  17723-3 0  9994
2 67282  97.3924 245.4696 0010233 359.0352   1.0863 15.23059785 26352
Epoch: 2026-06-19T18:40Z
TLE epoch observation values (Epoch: 2026-06-19T18:40:34.792Z)
Latitude
-0.00006°
Longitude
57.32237°
Altitude
492.677 km
Speed
7.622 km/s
True Right ascension
16h 21m 52s
True Declination
0° 00' 00"
Sunlit
Object was in full shadow at epoch
Visualization orbit readout
Latitude
Unknown
Longitude
Unknown
Altitude
Unknown
Speed
Unknown
Apparent Right ascension
Unknown
Apparent Declination
Unknown
Sunlit
N/A
Visualization observer readout
Local Sidereal Time
07:18:39
Azimuth
Unknown
Elevation
Unknown
Doppler factor
Unknown
Orbital elements
Apogee altitude
500.611 km
Perigee altitude
486.547 km
Semi-major axis
6,871.716 km
Eccentricity
0.00102
Inclination
97.3924°
RAAN
245.4696°
Arg. of periapsis
359.0352°
True anomaly
1.08853°
Mean anomaly
1.0863°
Eccentric anomaly
1.08741°
Mean motion
3.81018 °/min
Orbital period
94.48 mins
BSTAR
0.00017723
Loading maneuver chart data...
Computing Atmospheric mass density...
Loading historical data...
Loading historical data...
Loading historical data...
Loading historical data...
Loading historical data...
Loading historical data...
Loading historical data...

Documentation

Showing up to 5 results
|